Weather History for Boulder City, NV

Change the Weather History Date:

Sunday, March 24, 2013

  Actual Average (KLAS) Record (KLAS)
Temperature  
Mean Temperature 52 °F 62 °F  
Max Temperature 66 °F 72 °F 89 °F (1940)
Min Temperature 37 °F 51 °F 34 °F (1957)
Degree Days  
Heating Degree Days 14 5  
Month to date heating degree days 159  
Since 1 July heating degree days 1850  
Cooling Degree Days 0 1  
Month to date cooling degree days 16  
Year to date cooling degree days 17  
Growing Degree Days 2 (Base 50)    
Moisture  
Dew Point 7 °F    
Average Humidity 18    
Maximum Humidity 42    
Minimum Humidity 8    
Precipitation  
Precipitation 0.00 in 0.01 in 0.32 in (1980)
Month to date precipitation 0.38  
Year to date precipitation 1.68  
Snow  
Snow 0.00 in 0.00 in 0.00 in (2013)
Month to date snowfall 0.0  
Since 1 July snowfall 0.3  
Snow Depth -    
Sea Level Pressure  
Sea Level Pressure 30.05 in    
Wind  
Wind Speed 3 mph (NE)    
Max Wind Speed 9 mph    
Max Gust Speed -    
Visibility 10 miles    
Events Thunderstorm    
T = Trace of Precipitation, MM = Missing Value Source: NWS Daily Summary

Daily Weather History Graph

Daily Weather History Graph

Search for Another Location

Airport:

Trip Planner

Search our weather history database for the weather conditions in past years. The results will help you decide how hot, cold, wet, or windy it might be!

Date:

Astronomy

Mar. 24, 2013 Rise Set
Actual Time 6:36 AM PDT 6:54 PM PDT
Civil Twilight 6:11 AM PDT 7:20 PM PDT
Nautical Twilight 5:41 AM PDT 7:50 PM PDT
Astronomical Twilight 5:10 AM PDT 8:21 PM PDT
Moon 4:31 PM PDT (3/24) 4:44 AM PDT (3/24)
Length of Visible Light 13h 09m
Length of Day
12h 18m
Waxing Gibbous, 92% of the Moon is Illuminated
Mar 24
Waxing Gibbous
Mar 27
Full
Apr 2
Last Quarter
Apr 10
New
Apr 18
First Quarter

Hourly Weather History & Observations

Time (PDT) Temp. Windchill Dew Point Humidity Pressure Visibility Wind Dir Wind Speed Gust Speed Precip Events Conditions
12:15 AM 41.0 °F 37.1 °F 5.0 °F 23% 30.08 in 10.0 mi NNW 5.8 mph - N/A   Clear
12:35 AM 42.8 °F 40.1 °F 5.0 °F 21% 30.08 in 10.0 mi NW 4.6 mph - N/A   Clear
12:55 AM 42.8 °F - 6.8 °F 23% 30.08 in 10.0 mi Calm Calm - N/A   Clear
1:15 AM 41.0 °F - 8.6 °F 26% 30.07 in 10.0 mi Calm Calm - N/A   Clear
1:35 AM 41.0 °F - 12.2 °F 31% 30.08 in 10.0 mi Calm Calm - N/A   Clear
1:55 AM 44.6 °F - 5.0 °F 20% 30.07 in 10.0 mi Calm Calm - N/A   Clear
2:15 AM 44.6 °F 43.1 °F 8.6 °F 23% 30.08 in 10.0 mi East 3.5 mph - N/A   Clear
2:35 AM 41.0 °F - 10.4 °F 29% 30.08 in 10.0 mi Calm Calm - N/A   Clear
2:55 AM 41.0 °F - 6.8 °F 24% 30.08 in 10.0 mi Calm Calm - N/A   Clear
3:15 AM 39.2 °F - 17.6 °F 42% 30.08 in 10.0 mi Calm Calm - N/A   Clear
3:35 AM 37.4 °F 34.9 °F 15.8 °F 41% 30.08 in 10.0 mi NNE 3.5 mph - N/A   Clear
3:55 AM 39.2 °F 35.9 °F 8.6 °F 28% 30.08 in 10.0 mi NNW 4.6 mph - N/A   Clear
4:15 AM 42.8 °F 39.3 °F 3.2 °F 19% 30.08 in 10.0 mi NNW 5.8 mph - N/A   Clear
4:35 AM 46.4 °F 42.9 °F 1.4 °F 16% 30.09 in 10.0 mi NW 6.9 mph - N/A   Clear
4:55 AM 39.2 °F 35.9 °F 5.0 °F 24% 30.09 in 10.0 mi WSW 4.6 mph - N/A   Clear
5:15 AM 39.2 °F - 1.4 °F 21% 30.09 in 10.0 mi Calm Calm - N/A   Clear
5:35 AM 39.2 °F - 5.0 °F 24% 30.09 in 10.0 mi Calm Calm - N/A   Clear
5:55 AM 39.2 °F - 5.0 °F 24% 30.09 in 10.0 mi Calm Calm - N/A   Clear
6:15 AM 39.2 °F - 5.0 °F 24% 30.10 in 10.0 mi Calm Calm - N/A   Clear
6:35 AM 39.2 °F - 5.0 °F 24% 30.10 in 10.0 mi Calm Calm - N/A   Clear
6:55 AM 37.4 °F - 5.0 °F 26% 30.10 in 10.0 mi Calm Calm - N/A Thunderstorm Clear
7:15 AM 37.4 °F 34.9 °F 10.4 °F 33% 30.10 in 10.0 mi NNW 3.5 mph - N/A   Clear
7:35 AM 42.8 °F - 6.8 °F 23% 30.11 in 10.0 mi Calm Calm - N/A   Clear
7:55 AM 42.8 °F 41.1 °F 5.0 °F 21% 30.11 in 10.0 mi WSW 3.5 mph - N/A   Clear
8:15 AM 41.0 °F - 3.2 °F 21% 30.12 in 10.0 mi Calm Calm - N/A   Clear
8:35 AM 44.6 °F - 3.2 °F 18% 30.12 in 10.0 mi Calm Calm - N/A Thunderstorm Clear
8:55 AM 46.4 °F 45.2 °F 3.2 °F 17% 30.12 in 10.0 mi SSE 3.5 mph - N/A   Clear
9:15 AM 48.2 °F - 3.2 °F 16% 30.13 in 10.0 mi Calm Calm - N/A Thunderstorm Clear
9:35 AM 51.8 °F - 5.0 °F 15% 30.13 in 10.0 mi South 3.5 mph - N/A   Clear
9:55 AM 53.6 °F - 3.2 °F 13% 30.12 in 10.0 mi SE 3.5 mph - N/A   Clear
10:15 AM 55.4 °F - 3.2 °F 12% 30.12 in 10.0 mi NNE 5.8 mph - N/A   Clear
10:35 AM 57.2 °F - 5.0 °F 12% 30.12 in 10.0 mi NE 5.8 mph - N/A   Clear
10:55 AM 57.2 °F - 5.0 °F 12% 30.11 in 10.0 mi NE 6.9 mph - N/A   Clear
11:15 AM 59.0 °F - 5.0 °F 12% 30.11 in 10.0 mi NE 5.8 mph - N/A Thunderstorm Clear
11:35 AM 59.0 °F - 1.4 °F 10% 30.10 in 10.0 mi NE 9.2 mph - N/A   Clear
11:55 AM 59.0 °F - 1.4 °F 10% 30.10 in 10.0 mi NE 5.8 mph - N/A   Clear
12:15 PM 60.8 °F - 1.4 °F 9% 30.09 in 10.0 mi ENE 6.9 mph - N/A Thunderstorm Clear
12:35 PM 62.6 °F - 1.4 °F 9% 30.08 in 10.0 mi East 3.5 mph - N/A   Clear
12:55 PM 62.6 °F - 1.4 °F 9% 30.07 in 10.0 mi ENE 6.9 mph - N/A   Clear
1:15 PM 62.6 °F - 1.4 °F 9% 30.06 in 10.0 mi SE 3.5 mph - N/A   Clear
1:35 PM 64.4 °F - 1.4 °F 8% 30.05 in 10.0 mi Calm Calm - N/A   Clear
1:55 PM 64.4 °F - 1.4 °F 8% 30.04 in 10.0 mi North 4.6 mph - N/A   Clear
2:15 PM 66.2 °F - 1.4 °F 8% 30.03 in 10.0 mi NE 4.6 mph - N/A   Clear
2:35 PM 66.2 °F - 1.4 °F 8% 30.02 in 10.0 mi NE 8.1 mph - N/A   Clear
2:55 PM 66.2 °F - 1.4 °F 8% 30.01 in 10.0 mi ENE 8.1 mph - N/A Thunderstorm Clear
3:15 PM 66.2 °F - 1.4 °F 8% 30.00 in 10.0 mi NE 4.6 mph - N/A   Clear
3:35 PM 66.2 °F - 1.4 °F 8% 29.99 in 10.0 mi NE 6.9 mph - N/A Thunderstorm Clear
3:55 PM 66.2 °F - 1.4 °F 8% 29.99 in 10.0 mi NE 5.8 mph - N/A   Clear
4:15 PM 66.2 °F - 5.0 °F 9% 29.99 in 10.0 mi NNE 8.1 mph - N/A   Clear
4:35 PM 66.2 °F - 6.8 °F 10% 29.98 in 10.0 mi NE 5.8 mph - N/A   Clear
4:55 PM 66.2 °F - 6.8 °F 10% 29.97 in 10.0 mi NE 8.1 mph - N/A   Clear
5:15 PM 66.2 °F - 6.8 °F 10% 29.97 in 10.0 mi NE 9.2 mph - N/A   Clear
5:35 PM 66.2 °F - 6.8 °F 10% 29.96 in 10.0 mi ENE 8.1 mph - N/A Thunderstorm Clear
5:55 PM 66.2 °F - 6.8 °F 10% 29.96 in 10.0 mi ENE 6.9 mph - N/A   Clear
6:15 PM 66.2 °F - 6.8 °F 10% 29.96 in 10.0 mi NE 8.1 mph - N/A Thunderstorm Clear
6:35 PM 64.4 °F - 8.6 °F 11% 29.96 in 10.0 mi NE 6.9 mph - N/A   Clear
6:55 PM 62.6 °F - 10.4 °F 13% 29.95 in 10.0 mi ENE 5.8 mph - N/A   Clear
7:15 PM 60.8 °F - 10.4 °F 14% 29.95 in 10.0 mi NE 8.1 mph - N/A   Clear
7:35 PM 59.0 °F - 10.4 °F 15% 29.95 in 10.0 mi NE 6.9 mph - N/A Thunderstorm Clear
7:55 PM 57.2 °F - 14.0 °F 18% 29.96 in 10.0 mi NNE 5.8 mph - N/A   Clear
8:15 PM 55.4 °F - 19.4 °F 25% 29.96 in 10.0 mi NE 3.5 mph - N/A   Clear
8:35 PM 55.4 °F - 23.0 °F 29% 29.97 in 10.0 mi Calm Calm - N/A   Clear
8:55 PM 53.6 °F - 19.4 °F 26% 29.97 in 10.0 mi Calm Calm - N/A   Clear
9:15 PM 57.2 °F - 12.2 °F 17% 29.98 in 10.0 mi Calm Calm - N/A   Clear
9:35 PM 55.4 °F - 10.4 °F 17% 29.98 in 10.0 mi Calm Calm - N/A   Clear
9:55 PM 53.6 °F - 12.2 °F 19% 29.99 in 10.0 mi Calm Calm - N/A   Clear
10:15 PM 51.8 °F - 14.0 °F 22% 29.99 in 10.0 mi Calm Calm - N/A   Clear
10:35 PM 50.0 °F - 14.0 °F 24% 29.99 in 10.0 mi North 3.5 mph - N/A   Clear
10:55 PM 50.0 °F - 14.0 °F 24% 29.99 in 10.0 mi Calm Calm - N/A   Clear
11:15 PM 50.0 °F - 14.0 °F 24% 29.99 in 10.0 mi Calm Calm - N/A   Clear
11:35 PM 50.0 °F - 14.0 °F 24% 29.99 in 10.0 mi Calm Calm - N/A   Clear
11:55 PM 51.8 °F - 12.2 °F 21% 29.99 in 10.0 mi Calm Calm - N/A   Clear